| time (UTC) | temp F | wind direction | speed MPH | gust MPH | rain 1hr in | rain 24hr in | rain mn in | humidity % | barometer mb |
| 20260508065513 | 49 | 96 | 0.0 | 1.0 | 0.00 | 0.17 | 0.00 | 87 | 1014.4 |
| 20260508065008 | 49 | 96 | 0.0 | 1.0 | 0.00 | 0.17 | 0.00 | 87 | 1014.4 |
| 20260508064515 | 49 | 96 | 0.0 | 1.0 | 0.00 | 0.17 | 0.00 | 87 | 1014.5 |
| 20260508064008 | 49 | 96 | 0.0 | 0.0 | 0.00 | 0.17 | 0.00 | 87 | 1014.3 |
| 20260508063510 | 49 | 96 | 0.0 | 0.0 | 0.00 | 0.17 | 0.00 | 86 | 1014.3 |
| 20260508063006 | 50 | 96 | 0.0 | 0.0 | 0.00 | 0.17 | 0.00 | 86 | 1014.3 |
| 20260508062511 | 50 | 96 | 0.0 | 0.0 | 0.00 | 0.17 | 0.00 | 86 | 1014.3 |
| 20260508062007 | 50 | 96 | 0.0 | 0.0 | 0.00 | 0.17 | 0.00 | 85 | 1014.2 |
| 20260508061505 | 50 | 96 | 0.0 | 1.0 | 0.00 | 0.21 | 0.00 | 85 | 1014.1 |
| 20260508061005 | 51 | 96 | 0.0 | 1.0 | 0.00 | 0.21 | 0.00 | 85 | 1014.1 |
| 20260508060505 | 51 | 96 | 0.0 | 0.0 | 0.00 | 0.21 | 0.00 | 85 | 1014.1 |
| 20260508060005 | 51 | 96 | 0.0 | 1.0 | 0.00 | 0.21 | 0.00 | 84 | 1014.1 |
| 20260508055504 | 51 | 96 | 0.0 | 1.0 | 0.00 | 0.21 | 0.00 | 84 | 1014.1 |
| 20260508055004 | 51 | 96 | 0.0 | 1.0 | 0.00 | 0.21 | 0.00 | 84 | 1014.1 |
| 20260508054503 | 51 | 96 | 0.0 | 1.0 | 0.00 | 0.21 | 0.00 | 84 | 1014.2 |
| 20260508054004 | 51 | 96 | 0.0 | 1.0 | 0.00 | 0.21 | 0.00 | 84 | 1014.2 |
| 20260508053505 | 51 | 96 | 0.0 | 2.0 | 0.00 | 0.21 | 0.00 | 83 | 1014.1 |
| 20260508053005 | 51 | 96 | 1.0 | 3.0 | 0.00 | 0.21 | 0.00 | 84 | 1014.2 |
| 20260508052503 | 51 | 96 | 0.0 | 2.0 | 0.00 | 0.21 | 0.00 | 84 | 1014.1 |
| 20260508052004 | 51 | 96 | 0.0 | 1.0 | 0.00 | 0.21 | 0.00 | 83 | 1013.9 |
| 20260508051621 | 52 | 96 | 0.0 | 0.0 | 0.00 | 0.30 | 0.21 | 83 | 1014.0 |
| 20260508051100 | 52 | 96 | 0.0 | 0.0 | 0.00 | 0.30 | 0.21 | 82 | 1014.0 |
| 20260508050600 | 52 | 96 | 0.0 | 0.0 | 0.00 | 0.30 | 0.21 | 82 | 1014.0 |
| 20260508050100 | 52 | 96 | 0.0 | 1.0 | 0.00 | 0.30 | 0.21 | 82 | 1014.0 |
| 20260508045558 | 52 | 96 | 0.0 | 1.0 | 0.00 | 0.30 | 0.21 | 81 | 1013.9 |
| 20260508045058 | 52 | 96 | 0.0 | 1.0 | 0.00 | 0.30 | 0.21 | 81 | 1013.8 |
| 20260508044557 | 53 | 96 | 0.0 | 0.0 | 0.00 | 0.30 | 0.21 | 80 | 1013.7 |
| 20260508044056 | 53 | 96 | 0.0 | 0.0 | 0.00 | 0.30 | 0.21 | 79 | 1013.6 |
| 20260508043555 | 53 | 96 | 0.0 | 1.0 | 0.00 | 0.30 | 0.21 | 79 | 1013.5 |
| 20260508043056 | 53 | 96 | 0.0 | 1.0 | 0.00 | 0.30 | 0.21 | 78 | 1013.7 |
| 20260508042052 | 53 | 96 | 0.0 | 1.0 | 0.00 | 0.30 | 0.21 | 78 | 1013.5 |
| 20260508041553 | 53 | 96 | 0.0 | 1.0 | 0.00 | 0.31 | 0.21 | 78 | 1013.6 |
| 20260508041054 | 53 | 96 | 0.0 | 1.0 | 0.00 | 0.31 | 0.21 | 78 | 1013.5 |
| 20260508040553 | 53 | 96 | 0.0 | 3.0 | 0.00 | 0.31 | 0.21 | 78 | 1013.4 |
| 20260508040052 | 53 | 96 | 0.0 | 6.0 | 0.00 | 0.31 | 0.21 | 79 | 1013.5 |
| 20260508035552 | 53 | 96 | 1.0 | 6.0 | 0.00 | 0.31 | 0.21 | 78 | 1013.4 |
| 20260508035051 | 54 | 96 | 0.0 | 4.0 | 0.00 | 0.31 | 0.21 | 77 | 1013.5 |
| 20260508034551 | 54 | 96 | 1.0 | 4.0 | 0.00 | 0.31 | 0.21 | 76 | 1013.6 |
| 20260508034050 | 54 | 96 | 0.0 | 3.0 | 0.00 | 0.31 | 0.21 | 76 | 1013.5 |
| 20260508033549 | 54 | 96 | 0.0 | 2.0 | 0.00 | 0.31 | 0.21 | 75 | 1013.6 |
| 20260508033051 | 55 | 96 | 0.0 | 2.0 | 0.00 | 0.31 | 0.21 | 74 | 1013.6 |
| 20260508032049 | 55 | 96 | 2.0 | 4.0 | 0.00 | 0.31 | 0.21 | 73 | 1013.5 |
| 20260508031547 | 55 | 96 | 0.0 | 6.0 | 0.00 | 0.32 | 0.21 | 73 | 1013.7 |
| 20260508031047 | 56 | 96 | 1.0 | 4.0 | 0.00 | 0.32 | 0.21 | 72 | 1013.6 |
| 20260508030547 | 56 | 96 | 0.0 | 2.0 | 0.00 | 0.32 | 0.21 | 72 | 1013.6 |
| 20260508030048 | 56 | 96 | 0.0 | 2.0 | 0.00 | 0.32 | 0.21 | 71 | 1013.5 |
| 20260508025544 | 56 | 96 | 0.0 | 3.0 | 0.00 | 0.32 | 0.21 | 70 | 1013.4 |
| 20260508025043 | 57 | 96 | 0.0 | 7.0 | 0.00 | 0.32 | 0.21 | 70 | 1013.4 |
| 20260508024542 | 57 | 96 | 3.0 | 7.0 | 0.00 | 0.32 | 0.21 | 69 | 1013.2 |
| 20260508024042 | 57 | 96 | 1.0 | 4.0 | 0.00 | 0.32 | 0.21 | 69 | 1013.2 |
| 20260508023539 | 58 | 96 | 0.0 | 13.0 | 0.00 | 0.32 | 0.21 | 67 | 1013.1 |
| 20260508023039 | 58 | 96 | 2.0 | 13.0 | 0.00 | 0.32 | 0.21 | 65 | 1013.0 |
| 20260508022040 | 58 | 96 | 5.0 | 15.0 | 0.00 | 0.32 | 0.21 | 64 | 1012.9 |
| 20260508021547 | 58 | 96 | 6.0 | 15.0 | 0.00 | 0.33 | 0.21 | 65 | 1012.9 |
| 20260508021038 | 58 | 96 | 7.0 | 16.0 | 0.00 | 0.33 | 0.21 | 65 | 1012.8 |
| 20260508020538 | 58 | 96 | 7.0 | 23.0 | 0.00 | 0.33 | 0.21 | 65 | 1012.8 |
| 20260508020038 | 58 | 96 | 11.0 | 23.0 | 0.00 | 0.33 | 0.21 | 65 | 1012.8 |
| 20260508015536 | 58 | 96 | 7.0 | 14.0 | 0.00 | 0.33 | 0.21 | 66 | 1012.8 |
| 20260508015036 | 58 | 96 | 3.0 | 11.0 | 0.00 | 0.33 | 0.21 | 66 | 1012.6 |
| 20260508014535 | 58 | 96 | 2.0 | 11.0 | 0.00 | 0.33 | 0.21 | 67 | 1012.4 |
| 20260508014038 | 58 | 96 | 0.0 | 6.0 | 0.00 | 0.33 | 0.21 | 67 | 1012.5 |
| 20260508013535 | 58 | 96 | 1.0 | 7.0 | 0.00 | 0.33 | 0.21 | 67 | 1012.2 |
| 20260508013032 | 58 | 96 | 2.0 | 10.0 | 0.00 | 0.33 | 0.21 | 66 | 1012.3 |
| 20260508012032 | 59 | 96 | 2.0 | 16.0 | 0.00 | 0.33 | 0.21 | 65 | 1012.1 |
| 20260508011540 | 59 | 96 | 6.0 | 17.0 | 0.00 | 0.40 | 0.21 | 64 | 1011.9 |
| 20260508011033 | 59 | 96 | 9.0 | 22.0 | 0.00 | 0.40 | 0.21 | 65 | 1011.9 |
| 20260508010531 | 59 | 96 | 8.0 | 22.0 | 0.00 | 0.40 | 0.21 | 65 | 1011.7 |
| 20260508010039 | 58 | 96 | 12.0 | 22.0 | 0.00 | 0.40 | 0.21 | 65 | 1011.6 |
| 20260508005534 | 58 | 96 | 10.0 | 22.0 | 0.00 | 0.40 | 0.21 | 66 | 1011.5 |
| 20260508005031 | 58 | 96 | 10.0 | 21.0 | 0.00 | 0.40 | 0.21 | 65 | 1011.6 |
| 20260508004531 | 58 | 96 | 14.0 | 21.0 | 0.00 | 0.40 | 0.21 | 66 | 1011.6 |
| 20260508004032 | 58 | 96 | 8.0 | 13.0 | 0.00 | 0.40 | 0.21 | 67 | 1011.7 |
| 20260508003632 | 58 | 96 | 6.0 | 13.0 | 0.00 | 0.40 | 0.21 | 67 | 1011.7 |
| 20260508003030 | 59 | 96 | 4.0 | 23.0 | 0.00 | 0.40 | 0.21 | 66 | 1011.5 |
| 20260508002032 | 58 | 96 | 6.0 | 16.0 | 0.00 | 0.40 | 0.21 | 67 | 1011.2 |
| 20260508001530 | 58 | 96 | 7.0 | 23.0 | 0.00 | 0.53 | 0.21 | 67 | 1011.1 |
| 20260508001029 | 58 | 96 | 9.0 | 23.0 | 0.00 | 0.53 | 0.21 | 67 | 1011.0 |
| 20260508000529 | 58 | 96 | 9.0 | 27.0 | 0.00 | 0.53 | 0.21 | 67 | 1010.9 |
| 20260508000029 | 59 | 96 | 11.0 | 35.0 | 0.00 | 0.53 | 0.21 | 67 | 1010.9 |
| 20260507235531 | 59 | 97 | 15.0 | 35.0 | 0.00 | 0.53 | 0.21 | 67 | 1010.6 |
| 20260507235031 | 58 | 96 | 9.0 | 33.0 | 0.00 | 0.53 | 0.21 | 68 | 1010.6 |
| 20260507234527 | 59 | 96 | 20.0 | 33.0 | 0.00 | 0.53 | 0.21 | 68 | 1010.6 |
| 20260507234026 | 59 | 96 | 14.0 | 28.0 | 0.00 | 0.53 | 0.21 | 68 | 1010.8 |
| 20260507233626 | 59 | 97 | 9.0 | 30.0 | 0.00 | 0.53 | 0.21 | 68 | 1010.8 |
| 20260507233024 | 59 | 97 | 12.0 | 30.0 | 0.00 | 0.53 | 0.21 | 68 | 1010.7 |
| 20260507232023 | 59 | 96 | 13.0 | 26.0 | 0.00 | 0.53 | 0.21 | 69 | 1010.6 |
| 20260507231523 | 59 | 96 | 13.0 | 26.0 | 0.00 | 0.53 | 0.21 | 69 | 1010.7 |
| 20260507231023 | 59 | 96 | 12.0 | 30.0 | 0.00 | 0.53 | 0.21 | 70 | 1010.6 |
| 20260507230522 | 59 | 97 | 13.0 | 30.0 | 0.00 | 0.53 | 0.21 | 70 | 1010.8 |
| 20260507230035 | 60 | 96 | 16.0 | 28.0 | 0.00 | 0.53 | 0.21 | 70 | 1010.7 |
| 20260507225519 | 60 | 97 | 18.0 | 28.0 | 0.00 | 0.53 | 0.21 | 69 | 1010.6 |
| 20260507225019 | 60 | 96 | 15.0 | 27.0 | 0.00 | 0.53 | 0.21 | 69 | 1010.5 |
| 20260507224519 | 60 | 96 | 15.0 | 27.0 | 0.00 | 0.53 | 0.21 | 69 | 1010.5 |
| 20260507224018 | 61 | 96 | 13.0 | 23.0 | 0.00 | 0.53 | 0.21 | 69 | 1010.4 |
| 20260507223523 | 61 | 96 | 14.0 | 22.0 | 0.00 | 0.53 | 0.21 | 69 | 1010.4 |
| 20260507223023 | 61 | 96 | 10.0 | 22.0 | 0.00 | 0.53 | 0.21 | 69 | 1010.2 |
| 20260507222015 | 62 | 96 | 11.0 | 18.0 | 0.00 | 0.53 | 0.21 | 69 | 1009.9 |
| 20260507221514 | 62 | 96 | 7.0 | 20.0 | 0.00 | 0.53 | 0.21 | 70 | 1009.9 |
| 20260507221015 | 62 | 96 | 9.0 | 20.0 | 0.00 | 0.53 | 0.21 | 70 | 1009.8 |
| 20260507220515 | 62 | 96 | 7.0 | 22.0 | 0.00 | 0.53 | 0.21 | 70 | 1009.6 |
| 20260507220014 | 62 | 96 | 12.0 | 28.0 | 0.00 | 0.53 | 0.21 | 70 | 1009.5 |
| 20260507215513 | 62 | 96 | 19.0 | 30.0 | 0.00 | 0.53 | 0.21 | 69 | 1009.3 |
| 20260507215013 | 63 | 97 | 18.0 | 30.0 | 0.00 | 0.53 | 0.21 | 69 | 1009.1 |
| 20260507214512 | 64 | 96 | 15.0 | 27.0 | 0.00 | 0.53 | 0.21 | 69 | 1009.0 |
| 20260507214012 | 65 | 96 | 14.0 | 25.0 | 0.00 | 0.53 | 0.21 | 69 | 1008.6 |
| 20260507213511 | 65 | 96 | 13.0 | 25.0 | 0.00 | 0.53 | 0.21 | 68 | 1008.5 |
| 20260507213009 | 66 | 96 | 13.0 | 25.0 | 0.00 | 0.53 | 0.21 | 69 | 1008.5 |
| 20260507212017 | 65 | 96 | 14.0 | 23.0 | 0.00 | 0.53 | 0.21 | 69 | 1008.4 |
| 20260507211513 | 66 | 96 | 17.0 | 22.0 | 0.00 | 0.53 | 0.21 | 69 | 1008.4 |
| 20260507211011 | 65 | 96 | 12.0 | 22.0 | 0.00 | 0.53 | 0.21 | 68 | 1008.2 |
| 20260507210514 | 66 | 96 | 14.0 | 25.0 | 0.00 | 0.53 | 0.21 | 68 | 1008.2 |
| 20260507210010 | 67 | 96 | 12.0 | 26.0 | 0.00 | 0.53 | 0.21 | 67 | 1008.3 |
| 20260507205509 | 67 | 96 | 13.0 | 26.0 | 0.00 | 0.53 | 0.21 | 68 | 1008.3 |
| 20260507205009 | 67 | 96 | 13.0 | 27.0 | 0.00 | 0.53 | 0.21 | 68 | 1008.2 |
| 20260507204509 | 67 | 96 | 14.0 | 28.0 | 0.00 | 0.53 | 0.21 | 68 | 1008.1 |
| 20260507204008 | 67 | 96 | 11.0 | 25.0 | 0.00 | 0.53 | 0.21 | 68 | 1008.0 |
| 20260507203509 | 67 | 96 | 13.0 | 19.0 | 0.00 | 0.53 | 0.21 | 68 | 1008.1 |
| 20260507203022 | 69 | 96 | 12.0 | 19.0 | 0.00 | 0.53 | 0.21 | 67 | 1008.0 |
| 20260507202006 | 68 | 96 | 7.0 | 21.0 | 0.00 | 0.53 | 0.21 | 69 | 1008.0 |
| 20260507201504 | 68 | 96 | 15.0 | 22.0 | 0.00 | 0.53 | 0.21 | 68 | 1008.1 |
| 20260507201006 | 68 | 96 | 13.0 | 22.0 | 0.00 | 0.53 | 0.21 | 68 | 1007.9 |
| 20260507200503 | 68 | 96 | 8.0 | 19.0 | 0.00 | 0.53 | 0.21 | 69 | 1007.8 |
| 20260507200005 | 68 | 96 | 10.0 | 26.0 | 0.00 | 0.53 | 0.21 | 69 | 1007.9 |
| 20260507195502 | 69 | 96 | 10.0 | 17.0 | 0.00 | 0.53 | 0.21 | 68 | 1007.9 |
| 20260507195004 | 69 | 96 | 8.0 | 17.0 | 0.00 | 0.53 | 0.21 | 69 | 1007.9 |
| 20260507194501 | 70 | 96 | 7.0 | 17.0 | 0.00 | 0.53 | 0.21 | 68 | 1007.8 |
| 20260507194002 | 69 | 96 | 7.0 | 14.0 | 0.00 | 0.53 | 0.21 | 69 | 1007.7 |
| 20260507193502 | 69 | 96 | 8.0 | 17.0 | 0.00 | 0.53 | 0.21 | 69 | 1007.7 |
| 20260507193004 | 70 | 96 | 3.0 | 13.0 | 0.00 | 0.53 | 0.21 | 69 | 1007.5 |
| 20260507192002 | 70 | 96 | 7.0 | 15.0 | 0.00 | 0.53 | 0.21 | 69 | 1007.7 |
| 20260507191503 | 71 | 96 | 6.0 | 15.0 | 0.00 | 0.53 | 0.21 | 69 | 1007.7 |
| 20260507191003 | 71 | 96 | 9.0 | 14.0 | 0.00 | 0.53 | 0.21 | 69 | 1007.6 |
| 20260507190502 | 71 | 96 | 8.0 | 14.0 | 0.00 | 0.53 | 0.21 | 68 | 1007.6 |
| 20260507190003 | 72 | 96 | 8.0 | 14.0 | 0.00 | 0.53 | 0.21 | 68 | 1007.8 |
| 20260507185600 | 72 | 96 | 3.0 | 8.0 | 0.00 | 0.53 | 0.21 | 68 | 1007.8 |
| 20260507185502 | 72 | 96 | 0.0 | 6.0 | 0.00 | 0.53 | 0.21 | 68 | 1007.7 |
| 20260507185100 | 72 | 96 | 1.0 | 3.0 | 0.00 | 0.53 | 0.21 | 70 | 1007.9 |
| 20260507184601 | 72 | 96 | 0.0 | 9.0 | 0.00 | 0.53 | 0.21 | 70 | 1007.8 |
| 20260507184101 | 71 | 96 | 2.0 | 10.0 | 0.00 | 0.53 | 0.21 | 70 | 1007.9 |
| 20260507183603 | 71 | 96 | 5.0 | 14.0 | 0.00 | 0.53 | 0.21 | 70 | 1007.9 |
| 20260507183100 | 71 | 96 | 6.0 | 14.0 | 0.00 | 0.53 | 0.21 | 69 | 1007.7 |
| 20260507182059 | 72 | 96 | 4.0 | 12.0 | 0.00 | 0.53 | 0.21 | 70 | 1007.8 |
| 20260507181606 | 72 | 96 | 4.0 | 7.0 | 0.00 | 0.53 | 0.21 | 71 | 1007.8 |
| 20260507181059 | 72 | 96 | 0.0 | 8.0 | 0.00 | 0.53 | 0.21 | 72 | 1007.9 |
| 20260507180559 | 73 | 96 | 4.0 | 10.0 | 0.00 | 0.53 | 0.21 | 71 | 1007.8 |
| 20260507180058 | 73 | 96 | 4.0 | 12.0 | 0.00 | 0.53 | 0.21 | 72 | 1007.6 |
| 20260507175558 | 73 | 96 | 6.0 | 12.0 | 0.00 | 0.53 | 0.21 | 71 | 1007.6 |
| 20260507175058 | 73 | 96 | 5.0 | 11.0 | 0.00 | 0.53 | 0.21 | 71 | 1007.6 |
| 20260507174602 | 72 | 96 | 2.0 | 12.0 | 0.00 | 0.53 | 0.21 | 74 | 1007.6 |
| 20260507174058 | 71 | 96 | 7.0 | 12.0 | 0.00 | 0.53 | 0.21 | 74 | 1007.5 |
| 20260507173558 | 72 | 96 | 4.0 | 15.0 | 0.00 | 0.53 | 0.21 | 73 | 1007.7 |
| 20260507173100 | 73 | 96 | 2.0 | 7.0 | 0.00 | 0.53 | 0.21 | 76 | 1007.6 |
| 20260507172058 | 73 | 96 | 2.0 | 8.0 | 0.00 | 0.53 | 0.21 | 76 | 1007.6 |
| 20260507171604 | 72 | 96 | 2.0 | 11.0 | 0.00 | 0.54 | 0.21 | 77 | 1007.7 |
| 20260507171056 | 73 | 96 | 5.0 | 11.0 | 0.00 | 0.54 | 0.21 | 76 | 1007.7 |
| 20260507170600 | 72 | 96 | 3.0 | 9.0 | 0.00 | 0.54 | 0.21 | 77 | 1007.8 |
| 20260507170056 | 72 | 96 | 5.0 | 9.0 | 0.00 | 0.54 | 0.21 | 76 | 1007.7 |
| 20260507165555 | 73 | 96 | 1.0 | 7.0 | 0.00 | 0.54 | 0.21 | 75 | 1007.8 |
| 20260507165054 | 73 | 96 | 4.0 | 9.0 | 0.00 | 0.54 | 0.21 | 73 | 1007.7 |
| 20260507164554 | 72 | 96 | 4.0 | 9.0 | 0.00 | 0.54 | 0.21 | 75 | 1007.9 |
| 20260507164053 | 73 | 96 | 2.0 | 9.0 | 0.00 | 0.54 | 0.21 | 76 | 1008.1 |
| 20260507163553 | 73 | 96 | 5.0 | 9.0 | 0.00 | 0.54 | 0.21 | 76 | 1008.3 |
| 20260507163052 | 73 | 96 | 3.0 | 8.0 | 0.00 | 0.54 | 0.21 | 76 | 1008.3 |
| 20260507162052 | 73 | 96 | 0.0 | 7.0 | 0.00 | 0.54 | 0.21 | 76 | 1008.4 |
| 20260507161601 | 72 | 96 | 1.0 | 7.0 | 0.00 | 0.63 | 0.21 | 77 | 1008.5 |
| 20260507161049 | 71 | 96 | 3.0 | 10.0 | 0.00 | 0.63 | 0.21 | 76 | 1008.6 |
| 20260507160548 | 71 | 96 | 5.0 | 10.0 | 0.00 | 0.63 | 0.21 | 77 | 1008.7 |
| 20260507160047 | 70 | 96 | 2.0 | 8.0 | 0.00 | 0.63 | 0.21 | 83 | 1008.8 |
| 20260507155545 | 69 | 96 | 4.0 | 8.0 | 0.00 | 0.63 | 0.21 | 83 | 1008.8 |
| 20260507155044 | 68 | 96 | 1.0 | 9.0 | 0.00 | 0.63 | 0.21 | 85 | 1008.8 |
| 20260507154545 | 68 | 96 | 5.0 | 9.0 | 0.00 | 0.63 | 0.21 | 85 | 1008.8 |
| 20260507154043 | 68 | 96 | 4.0 | 10.0 | 0.00 | 0.63 | 0.21 | 86 | 1008.8 |
| 20260507153543 | 68 | 96 | 4.0 | 10.0 | 0.00 | 0.63 | 0.21 | 87 | 1008.7 |
| 20260507153052 | 67 | 96 | 1.0 | 9.0 | 0.00 | 0.63 | 0.21 | 89 | 1008.6 |
| 20260507152043 | 67 | 96 | 0.0 | 9.0 | 0.00 | 0.63 | 0.21 | 91 | 1008.5 |
| 20260507151542 | 66 | 96 | 3.0 | 9.0 | 0.00 | 0.63 | 0.21 | 90 | 1008.4 |
| 20260507151041 | 66 | 96 | 2.0 | 7.0 | 0.00 | 0.63 | 0.21 | 91 | 1008.1 |
| 20260507150539 | 66 | 96 | 2.0 | 7.0 | 0.00 | 0.63 | 0.21 | 91 | 1008.4 |
| 20260507150046 | 65 | 96 | 3.0 | 10.0 | 0.00 | 0.63 | 0.21 | 92 | 1008.5 |
| 20260507145538 | 65 | 96 | 6.0 | 10.0 | 0.00 | 0.63 | 0.21 | 92 | 1008.6 |
| 20260507145036 | 65 | 96 | 3.0 | 10.0 | 0.00 | 0.63 | 0.21 | 94 | 1008.6 |
| 20260507144535 | 65 | 96 | 6.0 | 10.0 | 0.00 | 0.63 | 0.21 | 94 | 1008.8 |
| 20260507144034 | 64 | 96 | 6.0 | 10.0 | 0.00 | 0.63 | 0.21 | 95 | 1009.0 |
| 20260507143533 | 64 | 96 | 6.0 | 10.0 | 0.00 | 0.63 | 0.21 | 96 | 1009.3 |
| 20260507143032 | 64 | 96 | 3.0 | 9.0 | 0.00 | 0.63 | 0.21 | 97 | 1009.1 |
| 20260507142029 | 63 | 96 | 2.0 | 6.0 | 0.00 | 0.63 | 0.21 | 98 | 1009.1 |
| 20260507141529 | 63 | 96 | 1.0 | 6.0 | 0.00 | 0.63 | 0.21 | 98 | 1009.1 |
| 20260507141028 | 63 | 96 | 2.0 | 4.0 | 0.00 | 0.63 | 0.21 | 98 | 1009.3 |
| 20260507140531 | 62 | 96 | 2.0 | 4.0 | 0.00 | 0.63 | 0.21 | 98 | 1009.3 |
| 20260507140031 | 62 | 96 | 1.0 | 4.0 | 0.00 | 0.63 | 0.21 | 98 | 1009.4 |
| 20260507135532 | 62 | 96 | 0.0 | 2.0 | 0.00 | 0.63 | 0.21 | 98 | 1009.5 |
| 20260507135026 | 62 | 96 | 0.0 | 3.0 | 0.00 | 0.63 | 0.21 | 98 | 1009.6 |
| 20260507134526 | 62 | 96 | 1.0 | 3.0 | 0.00 | 0.63 | 0.21 | 98 | 1009.4 |
| 20260507134028 | 62 | 96 | 1.0 | 3.0 | 0.00 | 0.63 | 0.21 | 98 | 1009.5 |
| 20260507133530 | 62 | 96 | 0.0 | 4.0 | 0.00 | 0.63 | 0.21 | 98 | 1009.3 |
| 20260507133026 | 62 | 96 | 2.0 | 4.0 | 0.00 | 0.63 | 0.21 | 98 | 1009.1 |
| 20260507132025 | 62 | 96 | 0.0 | 2.0 | 0.00 | 0.63 | 0.21 | 99 | 1009.5 |
| 20260507131528 | 62 | 96 | 0.0 | 6.0 | 0.00 | 0.63 | 0.21 | 98 | 1009.2 |
| 20260507131026 | 62 | 96 | 2.0 | 6.0 | 0.00 | 0.63 | 0.21 | 98 | 1009.4 |
| 20260507130527 | 62 | 96 | 0.0 | 2.0 | 0.01 | 0.63 | 0.21 | 98 | 1009.3 |
| 20260507130042 | 62 | 96 | 0.0 | 2.0 | 0.01 | 0.63 | 0.21 | 98 | 1009.1 |
| 20260507125528 | 62 | 96 | 0.0 | 2.0 | 0.01 | 0.63 | 0.21 | 99 | 1009.1 |
| 20260507125024 | 62 | 96 | 0.0 | 2.0 | 0.02 | 0.63 | 0.21 | 98 | 1009.1 |
| 20260507124524 | 62 | 96 | 0.0 | 2.0 | 0.03 | 0.63 | 0.21 | 98 | 1009.0 |
| 20260507124026 | 62 | 96 | 0.0 | 1.0 | 0.03 | 0.63 | 0.21 | 98 | 1009.0 |
| 20260507123524 | 62 | 96 | 0.0 | 1.0 | 0.04 | 0.63 | 0.21 | 98 | 1008.9 |
| 20260507123025 | 62 | 96 | 0.0 | 1.0 | 0.10 | 0.63 | 0.21 | 98 | 1008.9 |
| 20260507122024 | 62 | 96 | 0.0 | 2.0 | 0.12 | 0.63 | 0.21 | 98 | 1009.0 |
| 20260507121524 | 62 | 96 | 0.0 | 2.0 | 0.13 | 0.63 | 0.21 | 98 | 1009.2 |
| 20260507121024 | 62 | 96 | 1.0 | 4.0 | 0.14 | 0.63 | 0.21 | 98 | 1009.1 |
| 20260507120533 | 62 | 96 | 0.0 | 3.0 | 0.14 | 0.63 | 0.21 | 98 | 1009.4 |
| 20260507120033 | 62 | 96 | 1.0 | 3.0 | 0.14 | 0.62 | 0.20 | 98 | 1009.8 |
| 20260507115524 | 61 | 96 | 0.0 | 1.0 | 0.14 | 0.62 | 0.20 | 98 | 1009.8 |
| 20260507115027 | 61 | 96 | 0.0 | 0.0 | 0.14 | 0.62 | 0.20 | 98 | 1009.8 |
| 20260507114523 | 61 | 96 | 0.0 | 1.0 | 0.13 | 0.61 | 0.19 | 98 | 1009.8 |
| 20260507114023 | 61 | 96 | 0.0 | 1.0 | 0.13 | 0.60 | 0.18 | 98 | 1010.0 |
| 20260507113525 | 61 | 96 | 0.0 | 4.0 | 0.14 | 0.60 | 0.18 | 98 | 1010.3 |
| 20260507113023 | 61 | 96 | 2.0 | 6.0 | 0.12 | 0.57 | 0.16 | 98 | 1010.6 |
| 20260507112022 | 62 | 96 | 2.0 | 7.0 | 0.06 | 0.52 | 0.10 | 98 | 1010.8 |
| 20260507111523 | 62 | 96 | 2.0 | 7.0 | 0.05 | 0.51 | 0.09 | 98 | 1011.0 |
| 20260507111021 | 62 | 96 | 2.0 | 4.0 | 0.04 | 0.50 | 0.08 | 98 | 1010.6 |
| 20260507110522 | 62 | 96 | 1.0 | 2.0 | 0.03 | 0.49 | 0.07 | 98 | 1009.9 |
| 20260507110025 | 62 | 96 | 0.0 | 1.0 | 0.02 | 0.48 | 0.06 | 98 | 1009.7 |
| 20260507105521 | 62 | 96 | 0.0 | 2.0 | 0.02 | 0.48 | 0.06 | 98 | 1009.8 |
| 20260507105022 | 62 | 96 | 0.0 | 2.0 | 0.02 | 0.48 | 0.06 | 98 | 1009.4 |
| 20260507104522 | 62 | 96 | 0.0 | 2.0 | 0.02 | 0.48 | 0.06 | 98 | 1009.5 |
| 20260507104021 | 62 | 96 | 0.0 | 1.0 | 0.02 | 0.48 | 0.06 | 98 | 1009.7 |
| 20260507103521 | 62 | 96 | 0.0 | 6.0 | 0.01 | 0.47 | 0.05 | 98 | 1009.8 |
| 20260507103022 | 62 | 96 | 2.0 | 4.0 | 0.00 | 0.46 | 0.04 | 98 | 1010.0 |
| 20260507102021 | 62 | 96 | 0.0 | 2.0 | 0.00 | 0.46 | 0.04 | 98 | 1009.8 |
| 20260507101532 | 62 | 96 | 0.0 | 3.0 | 0.00 | 0.46 | 0.04 | 98 | 1009.4 |
| 20260507101023 | 62 | 96 | 1.0 | 3.0 | 0.00 | 0.46 | 0.04 | 98 | 1009.3 |
| 20260507100520 | 62 | 96 | 0.0 | 1.0 | 0.00 | 0.46 | 0.04 | 98 | 1009.3 |
| 20260507100023 | 62 | 96 | 0.0 | 1.0 | 0.00 | 0.46 | 0.04 | 98 | 1009.2 |
| 20260507095520 | 62 | 96 | 0.0 | 1.0 | 0.00 | 0.46 | 0.04 | 98 | 1009.0 |
| 20260507095020 | 62 | 96 | 0.0 | 1.0 | 0.00 | 0.46 | 0.04 | 98 | 1009.1 |
| 20260507094519 | 62 | 96 | 0.0 | 2.0 | 0.00 | 0.46 | 0.04 | 98 | 1009.2 |
| 20260507094020 | 62 | 96 | 0.0 | 2.0 | 0.00 | 0.46 | 0.04 | 98 | 1009.4 |
| 20260507093523 | 62 | 96 | 0.0 | 1.0 | 0.00 | 0.46 | 0.04 | 98 | 1009.4 |
| 20260507093019 | 62 | 96 | 0.0 | 4.0 | 0.00 | 0.46 | 0.04 | 98 | 1009.6 |
| 20260507092017 | 62 | 96 | 2.0 | 4.0 | 0.00 | 0.46 | 0.04 | 98 | 1009.6 |
| 20260507091519 | 62 | 96 | 1.0 | 4.0 | 0.00 | 0.46 | 0.04 | 98 | 1009.3 |
| 20260507091017 | 62 | 96 | 2.0 | 4.0 | 0.00 | 0.46 | 0.04 | 98 | 1009.5 |
| 20260507090519 | 62 | 96 | 1.0 | 3.0 | 0.00 | 0.46 | 0.04 | 98 | 1009.4 |
| 20260507090015 | 62 | 96 | 0.0 | 2.0 | 0.00 | 0.46 | 0.04 | 98 | 1009.4 |
| 20260507085515 | 62 | 96 | 0.0 | 2.0 | 0.00 | 0.46 | 0.04 | 98 | 1009.6 |
| 20260507085015 | 62 | 96 | 0.0 | 2.0 | 0.00 | 0.46 | 0.04 | 98 | 1009.6 |
| 20260507084515 | 62 | 96 | 0.0 | 2.0 | 0.00 | 0.46 | 0.04 | 98 | 1009.8 |
| 20260507084015 | 62 | 96 | 0.0 | 2.0 | 0.00 | 0.46 | 0.04 | 98 | 1009.7 |
| 20260507083515 | 62 | 96 | 0.0 | 2.0 | 0.00 | 0.46 | 0.04 | 98 | 1009.5 |
| 20260507083015 | 62 | 96 | 1.0 | 4.0 | 0.00 | 0.46 | 0.04 | 98 | 1009.4 |
| 20260507082013 | 62 | 96 | 0.0 | 2.0 | 0.00 | 0.46 | 0.04 | 98 | 1009.7 |
| 20260507081517 | 62 | 96 | 0.0 | 2.0 | 0.00 | 0.46 | 0.04 | 98 | 1010.1 |
| 20260507081013 | 62 | 96 | 1.0 | 2.0 | 0.00 | 0.46 | 0.04 | 98 | 1010.3 |
| 20260507080514 | 63 | 96 | 0.0 | 1.0 | 0.00 | 0.46 | 0.04 | 98 | 1010.0 |
| 20260507080014 | 62 | 96 | 0.0 | 1.0 | 0.00 | 0.46 | 0.04 | 98 | 1009.7 |
| 20260507075514 | 62 | 96 | 0.0 | 1.0 | 0.00 | 0.46 | 0.04 | 98 | 1009.8 |
| 20260507075013 | 62 | 96 | 0.0 | 3.0 | 0.00 | 0.46 | 0.04 | 98 | 1009.8 |
| 20260507074512 | 62 | 96 | 1.0 | 4.0 | 0.00 | 0.46 | 0.04 | 98 | 1009.4 |
| 20260507074012 | 62 | 96 | 1.0 | 6.0 | 0.00 | 0.46 | 0.04 | 98 | 1009.7 |
| 20260507073512 | 62 | 96 | 3.0 | 6.0 | 0.00 | 0.46 | 0.04 | 98 | 1009.9 |
| 20260507073012 | 62 | 96 | 2.0 | 6.0 | 0.00 | 0.46 | 0.04 | 98 | 1009.8 |
| 20260507072014 | 62 | 96 | 2.0 | 6.0 | 0.00 | 0.46 | 0.04 | 98 | 1009.7 |
| 20260507071514 | 62 | 96 | 3.0 | 6.0 | 0.00 | 0.46 | 0.04 | 98 | 1009.9 |
| 20260507071012 | 62 | 96 | 1.0 | 6.0 | 0.00 | 0.46 | 0.04 | 98 | 1009.8 |
| 20260507070512 | 62 | 96 | 1.0 | 6.0 | 0.00 | 0.46 | 0.04 | 98 | 1010.1 |
| 20260507070013 | 62 | 96 | 1.0 | 6.0 | 0.00 | 0.46 | 0.04 | 98 | 1010.0 |